Location: Unspecified
(50.0830°N, 0.0000°E)
Time: 02:34:36
(UTC+00:00)

Envisat - Pass Details

Date: 26 November 2019
Orbit: 764 x 766 km, 98.1° (Epoch: 13 December)

Event Time Altitude Azimuth Distance (km) Brightness Sun altitude
Rises 06:37:25 0° 17° (NNE) 3,244 6.2 -8.2°
Reaches altitude 10° 06:39:48 10° 22° (NNE) 2,313 5.5 -7.9°
Maximum altitude 06:44:48 55° 100° (E) 920 3.9 -7.1°
Drops below altitude 10° 06:49:45 10° 178° (S) 2,296 5.9 -6.4°
Sets 06:52:06 0° 183° (S) 3,217 6.6 -6.1°
